User: anonymous   Login
Location: Albany
(35.0000°S, 118.0000°E)
Time: 18:10:13
(UTC-04:00)
Language:

JAS-1B - Orbit

View from above orbital plane
View from above orbital plane
View from above satellite
View from above satellite

Ground track
Ground track

The orbit data is extracted from the following two-line orbital elements,

1 20480U 90013C   15085.41485713  .00000012  00000-0  91143-4 0  9994
2 20480 099.0743 000.9107 0540997 074.8576 038.8295 12.83403488177333
Epoch (UTC): 26 March 2015 09:57:23
Eccentricity: 0.0540997
inclination: 99.0743°
perigee height: 911 km
apogee height: 1745 km
right ascension of ascending node: 0.9107°
argument of perigee: 74.8576°
revolutions per day: 12.83403488
mean anomaly at epoch: 38.8295°
orbit number at epoch: 17733

The dashed part of the orbit path shows where the satellite is in the earth's shadow,  

DLR